Clinton-Sherman, OK

5:26 AM CDT on April 24, 2017 (GMT -0500)
Clinton-Sherman

Weather History for KCSM - August, 2013

Change the Weather History Date:

Monday, August 5, 2013

  Actual Average Record
Temperature  
Mean Temperature 90 °F -  
Max Temperature 104 °F 93 °F 109 °F (2011)
Min Temperature 78 °F 69 °F 66 °F (1998)
Cooling Degree Days 25    
Growing Degree Days 40 (Base 50)    
Moisture  
Dew Point 60 °F    
Average Humidity 38    
Maximum Humidity 62    
Minimum Humidity 20    
Precipitation  
Precipitation 0.00 in - - ()
Sea Level Pressure  
Sea Level Pressure 29.85 in    
Wind  
Wind Speed 16 mph (SSW)    
Max Wind Speed 21 mph    
Max Gust Speed 29 mph    
Visibility 10 miles    
Events      
Averages and records for this station are not official NWS values.
T = Trace of Precipitation, MM = Missing Value Source: NWS Daily Summary

Daily Weather History Graph

Daily Weather History Graph

Search for Another Location

Airport or City:

Trip Planner

Search our weather history database for the weather conditions in past years. The results will help you decide how hot, cold, wet, or windy it might be!

Date:

Astronomy

Aug. 05, 2013 Rise Set
Actual Time 6:48 AM CDT 8:36 PM CDT
Civil Twilight 6:21 AM CDT 9:03 PM CDT
Nautical Twilight 5:47 AM CDT 9:37 PM CDT
Astronomical Twilight 5:12 AM CDT 10:12 PM CDT
Moon 5:44 AM CDT (8/5) 7:39 PM CDT (8/5)
Length of Visible Light 14h 42m
Length of Day
13h 47m
Waning Crescent, 1% of the Moon is Illuminated
Aug 5
Waning Crescent
Aug 6
New
Aug 14
First Quarter
Aug 20
Full
Aug 28
Last Quarter

Hourly Weather History & Observations

Time (CDT) Temp. Heat Index Dew Point Humidity Pressure Visibility Wind Dir Wind Speed Gust Speed Precip Events Conditions
12:53 AM 84.0 °F 84.4 °F 61.0 °F 46% 29.91 in 10.0 mi South 17.3 mph - N/A   Clear
1:53 AM 82.9 °F 83.3 °F 61.0 °F 47% 29.89 in 10.0 mi South 18.4 mph - N/A   Clear
2:53 AM 82.0 °F 83.0 °F 62.1 °F 51% 29.89 in 10.0 mi South 18.4 mph - N/A   Clear
3:53 AM 80.1 °F 81.2 °F 62.1 °F 54% 29.89 in 10.0 mi South 12.7 mph - N/A   Clear
4:53 AM 80.1 °F 81.5 °F 63.0 °F 56% 29.90 in 10.0 mi SSW 13.8 mph - N/A   Clear
5:53 AM 79.0 °F - 63.0 °F 58% 29.89 in 10.0 mi South 13.8 mph - N/A   Clear
6:53 AM 78.1 °F - 64.0 °F 62% 29.91 in 10.0 mi SSW 12.7 mph - N/A   Clear
7:53 AM 80.1 °F 81.9 °F 64.9 °F 60% 29.91 in 10.0 mi SSW 15.0 mph - N/A   Clear
8:53 AM 84.0 °F 85.8 °F 64.9 °F 53% 29.91 in 10.0 mi SSW 16.1 mph - N/A   Clear
9:53 AM 90.0 °F 90.6 °F 63.0 °F 40% 29.91 in 10.0 mi SW 18.4 mph 27.6 mph N/A   Clear
10:53 AM 93.0 °F 93.8 °F 62.1 °F 36% 29.90 in 10.0 mi SW 20.7 mph 28.8 mph N/A   Clear
11:53 AM 97.0 °F 96.9 °F 60.1 °F 29% 29.89 in 10.0 mi WSW 17.3 mph 26.5 mph N/A   Clear
12:53 PM 99.0 °F 99.5 °F 60.1 °F 28% 29.87 in 10.0 mi WSW 16.1 mph 23.0 mph N/A   Clear
1:53 PM 100.0 °F 100.2 °F 59.0 °F 26% 29.85 in 10.0 mi WSW 9.2 mph 21.9 mph N/A   Clear
2:53 PM 100.9 °F 100.0 °F 57.0 °F 23% 29.84 in 10.0 mi South 12.7 mph 20.7 mph N/A   Clear
3:53 PM 102.0 °F 100.1 °F 54.0 °F 20% 29.82 in 10.0 mi SSW 16.1 mph 23.0 mph N/A   Clear
4:53 PM 102.9 °F 101.4 °F 55.0 °F 20% 29.78 in 10.0 mi SW 10.4 mph 18.4 mph N/A   Clear
5:53 PM 102.9 °F 101.4 °F 55.0 °F 20% 29.76 in 10.0 mi SSW 17.3 mph 23.0 mph N/A   Clear
6:53 PM 102.0 °F 100.1 °F 54.0 °F 20% 29.73 in 10.0 mi South 17.3 mph - N/A   Clear
7:53 PM 99.0 °F 98.1 °F 57.0 °F 25% 29.75 in 10.0 mi South 15.0 mph - N/A   Clear
8:53 PM 93.9 °F 92.9 °F 57.9 °F 30% 29.76 in 10.0 mi South 13.8 mph - N/A   Clear
9:53 PM 91.0 °F 90.2 °F 59.0 °F 34% 29.78 in 10.0 mi South 13.8 mph - N/A   Clear
10:53 PM 88.0 °F 87.1 °F 59.0 °F 37% 29.81 in 10.0 mi SSE 11.5 mph - N/A   Clear
11:53 PM 88.0 °F 86.9 °F 57.9 °F 36% 29.79 in 10.0 mi South 18.4 mph - N/A   Clear